GFSSE_500_rhum_189.txt.gz
RH
57 29 20 13 11 10 11 15 20 15 10 10 11 11 12 12 12 12 12 13 12 12 13 14 15 16 16 16 16 17 16 15 14 14 13 13 12 12 14 16 20 20 18
57 37 27 12 11 11 13 20 24 25 22 14 12 12 11 11 11 12 12 12 11 12 12 14 15 16 16 16 15 15 15 16 19 24 27 28 28 25 25 28 30 29 28
50 49 49 25 11 15 20 21 21 21 23 24 24 20 15 14 13 14 14 14 14 15 16 17 18 18 20 21 25 29 33 33 33 30 20 22 14 15 12 13 14 22 18
56 51 43 20 12 19 21 21 21 20 22 23 23 24 24 23 22 21 21 22 22 22 23 22 20 18 15 13 13 14 16 19 20 18 14 12 11 11 11 11 10 10 13
53 45 32 14 15 21 22 23 24 20 22 23 24 24 23 22 20 18 17 17 17 16 15 13 12 11 10 10 9 9 10 10 11 11 10 9 7 6 6 6 8 7 7
33 25 21 14 19 22 25 26 26 21 23 22 22 24 22 18 17 16 15 15 15 14 13 12 11 9 8 7 6 6 6 6 7 8 8 9 8 8 8 8 8 8 8
18 18 16 16 22 24 27 28 28 23 23 23 21 20 18 17 18 18 18 16 14 13 11 8 7 8 8 8 8 7 7 7 8 8 9 9 9 9 8 8 8 10 10
18 18 18 19 24 26 28 29 28 25 24 25 22 19 18 19 20 20 17 16 13 11 7 8 8 9 9 10 10 10 10 10 11 11 10 10 9 9 9 8 8 9 9
21 22 22 23 26 28 27 26 27 27 24 24 23 21 21 21 20 20 14 10 8 8 7 8 10 12 13 14 15 15 15 15 15 15 13 12 11 10 10 10 11 10 8
26 26 25 27 27 27 26 26 26 28 27 25 24 21 20 19 19 18 14 8 8 9 11 13 14 16 17 18 18 18 17 16 16 16 15 14 12 11 10 10 12 12 11
31 27 25 26 26 26 28 27 27 25 26 26 25 24 20 21 17 10 8 8 11 13 15 17 18 20 20 21 22 24 24 20 16 15 14 13 12 12 12 11 14 15 14
35 29 25 23 25 25 28 28 28 27 26 26 26 23 21 14 9 8 9 11 14 17 20 21 21 21 22 23 24 25 27 28 26 23 18 15 15 14 12 12 14 15 14
34 46 24 19 20 23 24 30 29 29 29 23 20 23 21 10 9 10 12 14 16 19 23 22 22 22 22 23 24 26 29 31 32 29 25 20 18 17 17 17 17 16 16
49 37 32 20 15 18 22 27 33 31 32 36 24 13 15 10 10 11 13 15 17 20 24 25 26 24 22 24 26 31 34 36 35 32 28 25 22 20 20 18 17 18 19
61 47 29 21 17 15 19 23 31 35 34 32 35 29 13 12 12 11 12 16 18 19 21 23 23 22 23 28 34 39 39 38 34 32 30 27 25 23 22 20 18 20 20
61 54 35 23 21 16 15 19 22 33 38 35 34 34 33 23 18 12 11 14 16 18 21 23 22 24 29 36 40 42 39 33 31 30 30 29 28 29 27 26 25 25 23
64 53 33 25 23 22 16 15 18 24 35 37 37 37 34 34 31 18 14 13 15 18 22 25 28 32 39 45 45 42 36 35 36 37 34 32 28 24 23 23 25 26 26
59 65 31 25 24 24 23 18 22 24 32 39 37 35 38 34 35 25 15 16 19 20 25 30 36 42 49 52 48 41 39 42 44 41 38 32 26 23 22 22 22 23 22
36 55 35 42 55 32 26 26 32 30 34 42 38 34 37 37 34 36 31 27 25 24 31 39 46 56 60 53 43 43 51 53 52 48 42 33 27 24 23 22 22 22 22
37 40 40 29 28 35 37 36 41 39 45 48 42 36 37 37 36 38 36 30 26 31 38 47 64 60 50 47 52 59 58 58 52 43 35 28 24 22 21 20 23 26 25
54 46 35 33 36 47 54 53 49 44 50 52 46 38 34 33 36 43 35 27 28 36 48 63 69 58 49 51 58 57 60 58 44 34 33 28 26 24 24 27 28 31 29
37 35 31 33 55 66 68 59 55 55 54 50 45 48 48 49 50 40 30 30 40 51 63 79 74 60 51 52 56 56 53 44 37 35 38 38 31 30 34 36 32 29 27
50 65 66 59 94 88 83 63 57 53 51 49 50 54 56 50 39 34 35 44 55 63 73 84 73 54 48 50 53 52 45 41 41 44 41 44 43 42 41 38 36 32 24
76 67 83 95 100 98 87 67 66 62 55 57 58 57 50 41 40 45 49 61 70 80 87 85 62 50 44 51 54 48 35 29 33 40 42 44 45 46 43 28 16 11 9
86 98 100 99 96 94 84 73 71 66 60 54 50 49 50 51 55 59 70 85 85 82 89 68 62 50 48 57 50 34 27 28 33 34 44 54 46 24 12 11 13 13 13
75 93 99 100 100 100 88 77 73 69 67 65 65 65 67 71 78 82 90 81 78 94 76 68 69 49 58 50 33 29 33 38 34 33 39 35 13 14 16 15 12 9 7

GFSSE_500_rhum_195.txt.gz
RH
30 32 31 27 16 13 17 18 19 19 21 21 15 9 10 10 11 11 11 12 12 12 11 12 13 15 17 18 17 17 18 20 25 32 33 28 26 21 21 14 15 13 10
32 36 32 28 19 14 17 17 17 19 18 19 21 23 16 11 11 11 11 12 12 11 12 13 16 18 19 20 22 24 26 28 26 22 12 9 7 6 5 4 4 5 4
35 37 39 31 21 15 18 16 16 17 20 19 21 22 23 24 21 16 14 14 14 16 17 18 19 19 15 11 10 10 10 9 8 7 5 4 5 5 5 5 5 5 5
43 42 36 27 18 16 18 18 16 19 22 22 20 21 22 22 22 22 21 20 18 17 15 13 11 10 9 9 8 7 7 7 5 4 4 5 6 6 7 7 7 7 7
49 52 40 20 17 16 18 19 16 21 23 24 21 21 21 22 21 18 16 15 14 14 12 10 10 8 7 6 6 6 6 6 6 6 6 6 7 7 8 9 8 8 8
57 50 27 18 16 16 18 19 17 22 25 25 22 22 19 22 19 15 15 14 13 12 12 10 9 7 7 7 7 7 7 6 7 7 8 9 10 10 10 10 10 10 9
46 49 21 16 17 16 18 19 18 21 26 26 24 23 19 18 17 16 16 17 16 14 12 10 7 6 7 7 8 8 9 9 10 11 10 12 12 12 12 11 10 9 9
44 41 18 18 17 17 18 20 18 21 23 25 26 23 21 18 17 18 19 19 18 15 13 10 7 6 8 10 11 12 12 12 12 13 14 14 14 13 13 12 11 10 9
45 44 21 19 19 18 20 20 20 22 22 23 25 26 23 21 19 20 19 18 18 14 10 8 7 8 11 13 14 15 16 17 19 20 20 20 22 22 20 18 16 14 12
43 48 30 22 22 19 21 21 21 24 22 23 22 24 26 24 21 20 20 19 16 17 14 7 8 10 14 15 16 18 19 20 20 19 19 19 20 20 21 21 20 19 18
44 48 39 29 25 22 22 21 22 22 24 23 24 22 23 26 25 23 21 20 17 12 7 8 10 12 14 17 19 20 20 18 17 16 17 19 20 20 20 21 22 21 21
50 53 48 34 30 26 23 20 20 22 23 24 24 24 21 21 24 25 23 21 15 8 8 9 11 14 15 18 20 21 20 18 16 16 18 21 22 22 24 27 26 24 22
56 53 49 42 32 24 27 20 17 19 21 23 25 25 25 22 22 18 19 22 16 9 10 11 13 15 16 18 21 23 22 19 15 15 19 20 22 23 27 27 26 25 24
60 57 51 37 33 42 40 30 22 16 17 18 23 27 27 26 24 24 21 13 17 12 10 11 12 14 16 17 18 19 18 15 13 16 22 24 26 28 29 27 26 26 24
57 68 63 61 56 51 47 47 30 21 18 16 16 21 26 28 28 24 24 24 20 15 12 12 12 11 13 15 17 16 15 14 14 19 26 28 33 34 29 27 27 27 26
72 80 73 74 63 64 59 43 45 30 24 21 17 17 20 25 30 32 28 28 30 31 28 24 19 18 14 12 13 14 17 17 18 24 27 42 41 38 30 30 30 31 32
60 70 68 78 60 66 64 51 36 32 32 26 24 19 17 19 23 28 33 34 32 31 33 33 31 28 16 12 16 23 22 20 26 34 38 38 44 38 32 31 31 30 30
31 38 68 66 57 77 71 47 44 42 41 36 28 29 24 20 19 21 29 35 37 36 34 33 34 31 31 33 32 30 24 25 33 45 47 46 41 39 34 29 28 28 27
25 28 57 63 73 81 78 73 47 59 49 47 40 39 34 30 28 28 30 36 40 42 40 41 40 37 34 35 35 31 26 35 46 54 54 50 42 39 32 25 23 21 20
22 26 32 49 65 71 91 74 78 97 72 55 43 32 39 39 42 42 39 40 49 52 49 46 43 36 34 40 40 29 34 48 61 56 51 46 41 36 28 22 18 15 11
28 31 38 83 68 64 80 98 95 68 66 61 49 33 42 58 60 55 54 54 56 56 47 39 40 44 50 45 34 37 49 67 63 58 54 48 40 32 24 18 14 10 6
52 47 56 53 55 78 83 84 82 74 71 56 40 48 64 74 66 62 63 61 59 54 47 46 50 53 48 38 40 47 70 69 68 61 56 45 36 27 20 15 10 5 4
57 56 58 55 58 61 59 59 55 63 64 58 62 75 78 78 75 73 71 70 69 67 59 57 56 51 42 45 52 68 82 70 62 62 51 44 34 24 17 13 6 6 6
64 60 66 69 66 70 68 64 64 74 75 81 83 81 79 92 85 79 80 75 68 64 60 59 52 49 54 63 81 90 91 89 76 59 54 45 36 25 18 12 8 7 6
70 77 78 71 63 65 69 82 78 91 94 91 77 74 95 96 85 85 84 77 70 64 62 60 61 66 79 89 91 92 94 93 75 64 49 43 39 28 20 13 11 10 10
74 73 58 51 50 56 67 71 83 95 100 97 83 98 97 84 84 85 83 78 74 74 77 79 83 88 92 92 89 95 96 87 66 50 48 45 38 30 24 23 26 24 21

GFSSE_500_rhum_198.txt.gz
RH
44 34 25 21 22 14 16 16 16 16 18 18 20 16 9 9 9 10 10 10 10 11 10 10 11 13 15 17 18 18 18 22 26 27 16 8 6 5 5 4 4 4 4
52 39 34 34 23 16 16 16 16 14 14 18 17 20 21 16 11 9 10 10 10 10 11 12 14 17 19 20 17 14 14 12 9 7 6 4 4 4 5 4 4 4 4
51 43 45 43 24 17 16 15 15 14 14 18 20 19 20 21 22 20 17 15 14 15 17 19 20 19 14 9 8 7 7 6 5 4 4 4 5 5 5 5 5 5 5
48 47 47 54 29 18 15 15 15 14 15 22 22 21 21 21 21 21 21 21 20 18 17 16 13 11 9 8 7 6 5 4 3 4 4 5 6 6 7 7 7 7 6
49 43 48 58 35 17 15 15 15 15 15 22 22 22 22 21 22 20 18 16 14 14 14 11 10 9 7 6 6 6 5 5 5 5 6 6 6 7 9 9 8 7 6
32 40 51 48 34 17 16 15 15 15 16 20 21 23 23 19 22 19 14 13 13 13 12 10 9 7 6 6 7 7 7 6 7 9 12 10 11 10 9 9 9 9 8
21 47 47 43 29 16 16 15 15 16 16 20 21 24 23 20 19 16 14 14 15 15 13 11 10 7 6 7 7 8 10 12 12 11 15 14 15 14 14 14 13 12 11
25 33 34 39 27 18 17 15 15 16 16 19 19 22 23 23 18 16 15 16 17 15 15 13 11 7 6 8 10 11 12 13 14 16 17 18 19 19 18 18 18 17 17
33 24 25 36 42 19 19 16 14 15 16 18 20 19 20 21 23 19 18 17 15 15 15 11 9 8 7 9 12 14 14 15 17 17 17 17 16 16 16 18 16 16 18
32 32 23 37 41 26 22 19 15 14 15 16 20 21 19 17 20 23 21 20 19 17 15 15 12 7 9 10 14 14 15 16 18 18 15 14 15 16 16 17 17 17 19
26 32 29 37 39 38 27 23 18 15 14 16 17 20 22 19 16 17 23 23 21 20 19 14 8 7 10 12 15 18 18 19 18 15 14 14 14 17 18 19 20 20 21
47 37 38 43 41 43 29 26 22 16 14 15 16 18 22 23 20 17 16 21 24 21 20 13 8 8 11 13 14 16 18 19 19 18 15 13 14 17 19 19 20 22 22
47 37 50 52 45 39 36 30 22 25 19 15 15 15 19 22 23 22 18 16 14 17 20 15 9 9 11 13 14 15 15 18 20 16 14 13 14 17 21 22 25 24 24
61 56 54 48 52 43 36 31 34 31 28 20 16 15 16 18 23 24 23 20 18 18 11 14 12 10 11 12 13 13 13 15 17 12 12 14 15 18 23 25 28 29 26
78 81 57 51 57 56 51 52 48 40 43 34 22 19 15 15 19 22 25 24 24 22 20 16 12 11 12 12 11 10 8 8 10 10 15 18 18 21 27 30 32 31 28
98 97 79 52 70 70 66 61 53 58 52 40 38 24 22 20 16 18 21 23 25 27 29 27 24 23 23 23 22 20 15 12 9 18 24 22 21 26 32 35 37 34 32
38 74 67 51 63 60 74 75 45 60 62 53 37 37 32 27 24 22 17 18 22 26 28 32 33 32 32 31 28 27 26 22 22 23 27 24 26 32 36 38 37 32 30
23 29 45 54 70 77 83 80 71 63 63 55 42 42 40 46 34 34 28 23 20 21 25 30 34 38 39 38 36 33 32 31 30 30 27 25 30 45 40 41 36 33 31
26 26 36 44 69 68 79 79 88 78 63 60 68 78 64 49 43 37 37 33 31 32 32 32 35 41 43 42 40 39 35 34 34 36 31 30 35 42 48 43 40 36 33
24 24 28 31 29 39 57 79 76 59 79 76 92 100 86 62 54 42 35 46 47 45 43 42 43 49 51 48 36 34 37 41 40 36 32 40 52 50 43 44 38 37 34
24 22 27 25 27 35 62 68 70 90 94 87 99 100 92 76 62 42 47 67 64 60 56 55 56 63 65 46 44 50 47 44 39 35 42 54 61 50 48 43 41 39 31
49 37 33 43 37 50 85 81 85 92 90 94 97 94 84 72 58 51 78 77 68 72 68 65 60 56 49 49 54 54 50 44 41 48 62 73 68 61 62 54 43 34 27
65 43 50 51 52 42 53 81 82 77 63 83 88 92 82 82 73 78 79 82 91 87 76 70 67 64 59 60 60 55 48 47 59 73 75 71 73 71 60 49 33 29 26
70 65 61 64 64 65 66 52 56 59 64 87 78 72 73 76 82 93 96 96 95 90 80 72 71 66 60 57 55 56 58 63 73 71 78 78 78 75 56 40 31 29 27
50 65 66 68 68 68 72 74 69 77 64 68 69 77 89 94 100 100 92 90 86 92 74 70 70 68 65 72 69 72 78 84 86 79 64 68 92 77 48 41 32 30 32
55 52 54 60 66 72 85 94 94 79 80 79 91 96 96 97 98 100 94 94 97 88 81 72 72 75 72 73 84 91 89 89 90 89 85 70 84 76 58 42 37 38 43

GFSSE_500_rhum_201.txt.gz
RH
36 29 28 32 25 16 14 16 14 14 14 15 17 19 16 8 8 8 8 9 9 9 9 9 9 10 14 16 17 16 13 13 12 8 6 4 4 4 4 3 3 3 3
40 30 33 34 38 21 16 16 15 14 12 12 15 18 19 20 12 9 9 9 9 10 10 10 12 16 17 16 10 8 7 6 6 5 3 3 4 4 4 4 4 3 3
28 34 37 36 43 45 19 16 16 14 13 12 18 20 19 20 21 22 17 14 13 13 14 16 18 16 13 8 8 6 6 5 4 4 3 4 4 5 5 5 4 4 3
18 38 38 40 43 44 30 17 15 14 13 13 19 21 21 21 21 21 21 21 20 19 18 17 14 11 9 8 6 5 4 4 3 4 4 5 5 6 6 7 7 6 6
32 37 36 34 39 39 31 16 15 13 13 13 18 21 21 21 20 21 20 18 16 14 13 12 11 9 8 6 5 4 4 4 4 4 5 6 8 8 8 8 8 8 8
47 38 26 32 39 36 26 17 16 13 13 13 16 21 22 21 19 22 19 15 13 12 12 10 9 8 6 5 5 5 4 6 8 6 10 9 9 11 12 12 13 13 12
37 36 29 25 36 36 28 17 16 14 13 13 14 20 24 23 19 20 17 15 14 12 11 11 10 8 6 6 6 6 6 11 14 12 13 15 16 17 17 16 16 16 15
28 28 31 25 22 29 36 19 18 15 13 13 12 18 20 24 23 17 18 18 17 14 12 12 11 10 7 6 7 8 11 14 14 15 15 16 14 14 14 15 14 14 14
44 31 24 29 28 23 36 32 19 19 14 13 13 12 19 19 20 22 18 19 18 15 13 12 10 9 7 6 7 9 14 16 15 16 15 14 14 13 14 14 15 16 16
44 30 26 32 35 23 32 39 26 23 17 13 13 14 12 19 19 17 19 21 20 19 18 13 12 9 8 6 8 10 17 16 16 17 17 15 13 12 13 15 18 18 18
24 37 26 29 35 28 36 41 38 27 21 17 14 14 15 15 17 22 17 15 19 21 20 18 15 12 10 6 8 10 15 17 18 19 19 16 13 12 13 13 16 19 20
62 63 47 23 25 32 39 41 39 29 24 20 16 14 15 16 16 18 24 22 16 15 18 20 19 14 8 7 9 11 14 14 16 16 16 14 12 11 12 13 14 17 21
54 49 45 38 28 40 46 46 38 33 29 24 29 20 15 15 16 19 18 22 26 23 18 14 13 14 11 8 9 11 13 14 14 14 13 12 10 9 13 14 14 17 22
19 39 55 49 33 50 54 44 43 37 32 34 32 28 21 17 16 16 19 21 22 23 26 25 20 12 11 9 8 10 11 11 10 9 8 7 9 9 16 16 17 20 24
17 22 25 45 47 65 66 46 54 42 49 47 41 44 41 34 21 17 15 16 20 24 27 27 28 27 25 18 12 11 13 14 12 12 13 12 10 15 20 17 19 24 31
22 19 21 48 71 81 90 63 67 61 58 52 48 53 49 40 36 26 23 22 18 17 20 21 27 30 31 32 29 20 28 26 24 20 23 23 21 22 23 22 24 30 37
27 24 22 44 62 46 89 59 68 72 71 70 50 50 58 52 41 40 36 30 25 24 20 18 20 21 24 30 33 34 29 30 33 33 34 33 31 29 25 25 28 36 41
31 28 25 46 86 81 30 36 62 81 87 82 77 55 61 66 48 49 42 35 36 39 40 32 26 25 24 24 28 37 38 34 36 37 37 36 35 32 30 30 34 44 43
32 28 27 28 45 43 51 69 71 86 83 89 86 71 77 70 70 77 66 65 42 39 35 36 38 37 35 35 34 35 41 46 39 30 34 37 43 40 34 37 46 50 43
36 25 23 24 26 28 41 47 64 84 91 78 89 77 93 85 85 90 88 67 58 53 38 48 52 48 47 48 50 50 56 54 42 38 42 35 42 39 43 55 56 56 48
39 31 24 22 24 26 28 38 40 55 62 79 96 96 92 98 88 88 88 90 66 56 46 59 58 60 64 63 59 54 49 51 48 49 53 52 44 44 57 63 58 59 54
36 39 42 34 25 28 36 49 49 43 57 82 100 99 93 91 93 94 100 86 66 61 61 72 69 80 76 69 64 58 53 52 54 55 55 49 54 69 69 58 59 55 61
33 32 41 45 45 46 46 55 55 47 38 57 74 99 96 97 95 93 100 83 73 71 80 89 92 98 90 80 73 70 66 59 55 53 56 62 65 72 74 68 62 56 63
48 50 42 46 60 64 56 60 67 69 53 53 63 97 97 96 91 96 100 85 74 82 96 96 95 97 96 88 70 77 70 70 81 82 84 86 79 75 64 64 64 72 74
47 51 58 77 91 80 81 73 73 76 78 65 66 84 96 96 96 97 99 92 87 93 97 95 90 96 97 90 89 92 91 88 90 89 85 81 75 82 74 64 74 76 76
61 66 71 72 98 98 97 90 76 78 87 93 91 90 98 98 97 97 98 98 95 94 96 95 92 94 98 96 94 93 93 94 92 90 93 90 90 87 84 88 82 75 67